Location: ???????
(55.5931°N, 39.3286°E)
Time: 11:53:20
(UTC+00:00)

Cosmos 2369 Rocket - Pass Details

Date: 14 April 2024
Orbit: 830 x 850 km, 71.0° (Epoch: 27 May)

Event Time Altitude Azimuth Distance (km) Brightness Sun altitude
Rises 01:29:40 0° 325° (NW) 3,400 5.3 -7.3°
Reaches altitude 10° 01:32:08 10° 326° (NNW) 2,459 4.6 -7.0°
Maximum altitude 01:37:47 84° 56° (NE) 846 2.3 -6.3°
Drops below altitude 10° 01:43:23 10° 144° (SE) 2,435 4.7 -5.6°
Sets 01:45:49 0° 146° (SE) 3,364 5.4 -5.3°
